Regional Weather Roundup
Issued by NWS State College, PA

Home | Current Version | Previous Version | Graphics & Text | Print | Product List | Glossary On
Versions: 1 2 3 4 5 6 7 8 9 10 11 12 13 14 15 16 17 18 19 20 21 22 23 24 25 26 27 28 29 30 31 32 33 34 35 36 37 38 39 40 41 42 43 44 45 46 47 48 49 50
000
ASUS41 KCTP 251803
RWRCTP

REGIONAL WEATHER ROUNDUP
NATIONAL WEATHER SERVICE STATE COLLEGE PA
200 PM EDT SAT APR 25 2015

Note: "fair" indicates few or no clouds below 12,000 feet with no
significant weather and/or obstructions to visibility.

* = STATION THAT DOES NOT REPORT PRECIPITATION /E.G. RAIN...SNOW...ETC/
    THUNDER OR FOG.

PAZ002>004-007>009-013>016-020>023-029>032-251900-
WESTERN PENNSYLVANIA

CITY           SKY/WX    TMP DP  RH WIND       PRES   REMARKS
ERIE           MOSUNNY   42  26  53 NE10      29.88F
MEADVILLE      CLOUDY    47  21  35 N9        29.83F
FRANKLIN*      CLOUDY    46  19  34 E3        29.84F
NEW CASTLE     FAIR      50  19  29 CALM      29.83F
BEAVER COUNTY  SUNNY     50  25  37 E3        29.82F
BUTLER*        PTSUNNY   48  18  29 E8        29.83F
PITTSBURGH INT CLOUDY    47  29  49 SE7       29.82F
PITTSBURGH     PTSUNNY   49  25  39 VRB3      29.81F
INDIANA*       MOSUNNY   50  16  25 NW5       29.85F
LATROBE        CLOUDY   N/A N/A N/A NE9       29.82F
WASHINGTON CO* PTSUNNY   50  30  46 E7        29.83S
$$

PAZ004>006-010>012-017>019-024>028-033>037-041-042-045-046-049>053-251900-
CENTRAL PENNSYLVANIA

CITY           SKY/WX    TMP DP  RH WIND       PRES   REMARKS
BRADFORD       CLOUDY    46  19  34 NE7       29.81F
DUBOIS         MOSUNNY   50  17  27 CALM      29.80F
CLEARFIELD     PTSUNNY   49  19  30 S10       29.82F
JOHNSTOWN      CLOUDY    46  15  28 CALM      29.79F
ALTOONA        CLOUDY    47  15  27 CALM      29.83F
STATE COLLEGE  CLOUDY    48  21  34 CALM      29.83F
WILLIAMSPORT   PTSUNNY   52  23  32 W12       29.82F
SELINSGROVE    PTSUNNY   52  27  38 VRB3      29.86F
FT INDIANTOWN  MOSUNNY   54  20  27 VRB2      29.83F
CAPITAL CITY   MOSUNNY   52  21  29 N3        29.85F
HARRISBURG     PTSUNNY   52  22  30 W5        29.85F
YORK           PTSUNNY   50  23  34 VRB6      29.86F
$$

PAZ038>040-043-044-047-048-054-055-060>062-067>071-251900-
EASTERN PENNSYLVANIA

CITY           SKY/WX    TMP DP  RH WIND       PRES   REMARKS
SCRANTON       SUNNY     52  25  35 NW7       29.82F
MOUNT POCONO   SUNNY     49  23  36 NW13G18   29.78F
ALLENTOWN      PTSUNNY   54  27  35 W7        29.82F
QUAKERTOWN*    PTCLDY    52  27  37 NW7       29.84F
READING        MOSUNNY   53  25  33 NW7G16    29.83F
LANCASTER      MOSUNNY   51  27  39 VRB5      29.85F
COATESVILLE    PTCLDY    48  25  40 NW7       29.86F
POTTSTOWN      MOSUNNY   52  25  35 NW9       29.85F
BLUE BELL      MOSUNNY   54  28  37 W7        29.83F
DOYLESTOWN     MOSUNNY   54  28  36 NW8       29.82F
WILLOW GROVE   NOT AVBL
NORTH PHILA    SUNNY     56  24  29 W10G18    29.86F
PHILADELPHIA   PTSUNNY   54  23  30 SW9       29.85F
$$


USA.gov is the U.S. government's official web portal to all federal, state and local government web resources and services.